Find Starlink 32819

NORAD ID: 62995 Int'l Des: 2025-031 Owner: SPXS Country: US Constellation: starlink operational
LEOCIRCULAR

Live-Position

3D-Globus wird geladen...

Über Starlink 32819

Beschreibung wird geladen...

Nächste Überflüge

Passes for default location (London). Set your location on the main map for personalized predictions.

Höhenverlauf

Loading altitude history...

Zweizeiliger Elementsatz

1 62995U 25031Q 26126.54204394 .00019169 00000-0 70473-3 0 9990
2 62995 43.0000 176.5609 0001638 283.8186 76.2483 15.27559627 69945
Epoch: 6. Mai 2026 • Age: 9 hours

Aktueller Status

Höhe 493.9 km
Geschwindigkeit 7.62 km/s
Subsatellitenpunkt -39.66°S, 84.36°W
Startdatum 11. Feb. 2025
Alter 1.2 years
Typ internet

Technische Details

Klassifizierung Payload
Masse 730.00 kg
Trockenmasse 700.00 kg
Gesamtmasse 730.00 kg
Länge 0.30 m
Durchmesser 4.10 m
Spannweite 29.00 m
Form Box + pan
Hersteller SPXS
Bus-Typ Starlink V2M
Phasenstatus In Orbit
Besitzer/Staat SPXS/US

Most Searched